Skip Page Navigation
NASA JPL Caltech
NASA Logo - Jet Propulsion Laboratory + View the NASA Portal
+ Center for Near-Earth Object Studies
JPL Home Earth Solar System Stars & Galaxies Technology
JPL Solar System Dynamics
BODIES ORBITS EPHEMERIDES TOOLS PHYSICAL DATA DISCOVERY FAQ SITE MAP
IMPORTANT: The SSD Announcement email list is now available. Major changes are coming in the near future, including possible hostname and/or URL changes. To be notified of such changes, subscribe to this email list.

Please visit this page for more details.


JPL Small-Body Database Browser
Search: [ help ]  
183720 (2003 YP82)
Classification: Main-belt Asteroid          SPK-ID: 2183720
Ephemeris | Orbit Diagram | Orbital Elements | Mission Design | Physical Parameters | Discovery Circumstances ]

[ show orbit diagram ]
Orbital Elements at Epoch 2458600.5 (2019-Apr-27.0) TDB
Reference: JPL 10 (heliocentric ecliptic J2000)
 Element Value Uncertainty (1-sigma)   Units 
e .1587655231112257 5.6394e-08  
a 2.281417321034051 1.3497e-08 au
q 1.919206906625069 1.2735e-07 au
i 3.218743847417339 6.361e-06 deg
node 39.19936361553221 9.0726e-05 deg
peri 357.303099892017 9.2357e-05 deg
M 209.1753801326697 1.8446e-05 deg
tp 2459127.821243140972
(2020-Oct-05.32124314)
6.7054e-05 TDB
period 1258.65158949338
3.45
1.117e-05
3.058e-08
d
yr
n .2860203753009233 2.5382e-09 deg/d
Q 2.643627735443034 1.564e-08 au
  Orbit Determination Parameters
   # obs. used (total)      266  
   data-arc span      6632 days (18.16 yr)  
   first obs. used      2001-03-04  
   last obs. used      2019-05-01  
   planetary ephem.      DE431  
   SB-pert. ephem.      SB431-N16  
   condition code      0  
   norm. resid. RMS      .61844  
   source      ORB  
   producer      Otto Matic  
   solution date      2019-Jul-14 04:50:32  

Additional Information
 Earth MOID = .925626 au 
 Jupiter MOID = 2.76938 au 
 T_jup = 3.586 
[ show covariance matrix ]

Ephemeris | Orbit Diagram | Orbital Elements | Mission Design | Physical Parameters | Discovery Circumstances ]

Physical Parameter Table
Parameter Symbol Value Units Sigma Reference Notes
absolute magnitude H 17.3   n/a MPO235265  

183720 (2003 YP82)          Discovered 2003-Dec-18 by Spacewatch at Kitt Peak
Reference: 20080420/Numbers.arcLast Updated: 2008-04-23

Alternate Designations
 2003 YP82 = 2003 YF79 
Ephemeris | Orbit Diagram | Orbital Elements | Mission Design | Physical Parameters | Discovery Circumstances ]
ABOUT SSD CREDITS/AWARDS PRIVACY/COPYRIGHT GLOSSARY LINKS
FirstGov
(server date/time)  
NASA Home Page
Site Manager:   Ryan S. Park
Webmaster  Alan B. Chamberlin